EHI
20 20 19 18 19 23 29 32 32 32 32 30 27 24 21 20 19 18 18 16 15 15 15 15 16 15 11 7 4 1 1 1 2 2 1 0 0 1 0 0 0 0 0
21 21 20 20 22 24 28 32 33 32 33 32 28 24 23 21 20 19 20 19 16 14 13 13 15 14 12 9 6 4 2 1 1 1 0 0 0 1 0 0 0 0 1
19 19 19 21 23 24 27 31 33 33 33 32 28 25 24 23 21 22 23 21 17 13 11 11 13 13 11 9 9 7 4 1 0 0 0 0 1 1 0 0 0 1 2
17 18 19 20 21 21 23 27 31 33 32 29 26 24 23 22 21 22 21 18 14 11 9 10 12 12 10 9 9 8 4 1 0 0 1 1 1 1 0 0 0 0 1
18 19 19 18 17 18 20 24 29 32 32 28 25 23 21 21 21 19 16 13 12 10 8 9 10 11 10 9 9 8 5 2 1 1 1 1 1 1 0 0 0 0 0
19 20 21 19 17 17 19 23 26 29 30 28 25 22 20 21 20 17 14 11 10 10 8 7 8 10 10 10 9 8 6 3 3 3 2 1 1 0 1 1 0 0 0
17 19 21 21 20 19 22 25 26 26 27 26 23 20 18 19 18 16 14 11 10 10 8 7 7 9 9 8 7 7 6 5 5 5 3 2 1 1 2 2 1 1 0
14 16 21 24 22 21 22 24 23 23 22 22 21 18 15 14 13 14 14 11 10 9 7 6 5 6 6 5 5 6 6 6 6 4 3 3 3 3 3 3 2 2 1
13 15 21 25 23 20 20 20 19 18 17 17 16 14 12 12 12 13 13 11 9 7 4 4 4 4 4 3 3 4 5 6 6 4 3 3 3 3 3 3 4 4 3
13 15 20 21 18 16 16 15 14 13 12 12 11 10 10 11 12 12 12 10 8 4 2 3 4 3 2 2 3 4 3 4 4 4 4 3 4 4 5 5 5 5 5
12 14 16 14 12 12 12 12 11 9 8 8 9 9 9 9 9 9 9 8 5 2 2 2 2 1 0 1 2 3 2 1 2 3 3 4 5 6 6 6 6 6 6
10 11 12 10 8 8 9 9 9 8 7 7 9 10 9 8 7 7 7 6 3 1 1 1 0 0 0 0 1 1 0 0 0 1 3 5 6 6 6 6 6 6 6
7 7 7 6 5 5 6 7 8 8 7 7 8 8 8 8 6 6 7 7 3 0 0 0 0 0 0 0 0 0 0 0 0 1 3 5 6 6 6 6 6 6 5
5 5 4 4 3 4 5 5 6 7 7 7 6 5 6 7 6 5 6 6 2 0 0 0 0 0 0 0 0 0 0 0 0 1 3 5 6 6 4 5 6 5 4
4 3 3 3 3 4 5 5 5 5 5 5 5 4 3 5 5 4 4 3 1 0 0 0 0 0 0 0 0 0 0 0 1 1 3 5 5 4 2 2 3 2 2
2 3 3 3 4 4 4 5 5 3 2 2 3 3 3 4 4 3 2 1 0 0 0 0 0 0 0 0 0 0 0 1 2 3 3 4 3 2 0 0 1 0 0
1 2 3 3 4 5 4 5 5 4 3 2 2 3 3 3 2 1 1 0 0 0 0 0 0 0 0 0 0 0 1 2 3 3 3 3 2 0 0 0 0 0 0
2 2 3 3 4 5 6 7 6 5 4 4 2 1 1 1 1 0 0 0 0 0 0 0 0 0 0 0 0 0 1 2 3 3 3 3 2 1 0 0 0 0 0
3 3 3 4 5 6 7 8 6 4 3 3 1 0 0 0 0 0 0 0 0 0 0 0 0 0 0 0 0 0 1 2 3 3 3 3 2 1 0 0 0 0 0
4 3 3 4 5 5 6 6 5 3 1 1 0 0 0 0 0 0 0 0 0 0 0 0 0 0 0 0 0 0 1 2 2 2 2 2 1 0 0 0 0 0 0
5 4 3 4 3 3 3 3 2 1 0 0 0 0 0 0 0 0 0 0 0 0 0 0 0 0 0 0 0 0 0 1 1 1 1 0 0 0 0 0 0 0 0
6 4 3 2 2 2 1 1 1 0 0 0 0 0 0 0 0 0 0 0 0 0 0 0 0 0 0 0 0 0 0 0 0 0 0 0 0 0 0 0 0 0 0
4 3 1 1 1 1 1 0 0 0 0 0 0 0 0 0 0 0 0 0 0 0 0 0 0 0 0 0 0 0 0 0 0 0 0 0 0 0 0 0 0 0 0
4 2 1 1 0 1 1 0 0 0 0 0 0 0 0 0 0 0 0 0 0 0 0 0 0 0 0 0 0 0 0 0 0 0 0 0 0 0 0 0 0 0 0
5 3 2 1 0 0 0 0 0 0 0 0 0 0 0 0 0 0 0 0 0 0 0 0 0 0 0 0 0 0 0 0 0 0 0 0 0 0 0 0 0 0 0
5 4 3 1 0 0 0 0 0 0 0 0 0 0 0 0 0 0 0 0 0 0 0 0 0 0 0 0 0 0 0 0 0 0 0 0 0 0 0 0 0 0 0
Wind_Speed
5 5 6 7 7 6 6 6 6 6 5 4 5 4 4 3 3 2 2 3 2 2 2 2 1 2 2 2 3 3 3 3 3 4 4 3 4 2 2 3 3 3 3
5 5 6 6 7 7 7 6 6 6 6 4 3 3 3 2 2 2 2 2 2 2 2 2 2 2 2 2 2 3 3 3 2 4 4 3 3 3 2 3 3 3 4
6 6 6 6 7 7 7 6 6 6 5 5 4 3 3 3 3 3 2 2 2 2 1 2 2 2 3 2 2 2 3 3 2 2 4 4 3 3 2 3 3 4 4
6 6 7 7 7 7 6 6 6 5 5 5 5 5 4 3 2 2 2 2 2 2 2 1 2 2 2 2 2 1 2 3 3 2 2 4 5 5 3 3 3 4 4
5 6 7 7 7 7 6 6 6 5 5 5 5 5 4 3 2 2 2 1 2 2 2 2 2 2 2 1 2 1 2 3 3 3 3 3 4 6 6 5 4 4 4
4 4 5 6 6 6 6 6 6 6 5 5 5 5 4 3 3 3 2 2 1 1 2 2 2 2 2 2 2 2 2 3 3 4 4 4 4 4 5 6 6 5 4
4 4 5 6 6 7 7 7 7 6 6 5 5 4 4 4 4 3 3 2 2 1 1 1 2 2 2 2 2 3 3 3 4 4 4 4 4 5 5 6 6 7 5
3 4 5 5 6 7 7 7 7 6 5 5 4 4 3 3 2 2 2 2 2 1 0 2 3 3 3 3 3 3 3 3 4 4 4 4 4 4 5 5 6 6 6
2 3 4 5 6 7 7 7 7 6 5 5 4 3 3 3 2 2 3 2 1 1 2 2 3 3 3 3 4 2 3 3 4 4 4 5 4 4 4 5 5 6 7
2 3 4 5 5 6 6 7 7 6 5 4 3 3 3 3 3 2 2 1 2 2 2 3 3 4 3 3 4 3 3 4 4 4 4 5 5 4 4 5 5 5 6
2 4 4 5 5 5 6 6 6 6 5 4 4 3 3 3 3 2 2 2 2 2 3 3 3 4 4 3 3 4 4 5 4 5 5 5 6 6 5 5 5 5 5
2 4 5 5 6 6 5 5 5 5 5 4 4 4 3 3 3 3 2 2 2 3 3 3 3 4 4 4 4 5 5 5 5 5 6 6 5 6 6 5 6 5 5
2 3 5 5 5 6 5 5 5 5 5 5 5 4 4 3 3 3 3 3 3 3 3 3 3 4 4 4 4 5 5 5 6 6 6 6 6 7 5 6 6 6 5
3 3 4 4 5 5 5 5 4 4 5 4 4 4 4 3 3 3 3 3 2 3 3 3 4 4 4 4 4 5 5 6 6 6 7 6 6 7 7 6 7 6 6
3 3 3 4 4 5 5 5 5 4 4 4 4 4 3 3 3 3 3 3 3 3 3 3 4 4 4 3 4 5 6 6 6 6 7 7 6 7 7 7 6 6 6
3 3 4 4 4 5 5 5 4 4 4 3 3 3 3 3 3 3 3 3 3 3 3 3 4 4 3 2 4 7 7 7 7 7 7 7 6 6 8 9 9 8 8
3 3 4 4 4 4 5 5 5 4 4 4 3 3 3 3 3 3 3 2 3 3 3 3 4 4 2 2 4 6 7 7 7 7 7 7 5 5 6 6 8 9 11
3 3 4 4 4 4 4 5 5 5 4 4 3 3 2 2 2 2 2 2 2 2 3 3 4 4 2 2 4 5 7 7 7 7 7 7 7 5 5 7 7 7 6
3 3 4 4 4 4 4 5 5 5 4 4 3 2 2 2 2 2 2 2 2 3 3 3 4 4 3 2 3 5 5 5 6 6 6 6 6 3 3 6 7 7 6
2 3 4 5 5 4 4 5 4 4 4 3 3 2 2 2 2 2 2 2 2 3 4 4 4 4 4 1 2 4 5 5 5 5 5 4 4 3 3 5 6 7 6
3 4 4 4 4 4 4 4 4 3 2 2 3 2 2 2 2 1 1 2 3 3 4 4 4 3 3 2 2 3 4 5 5 5 5 3 0 3 5 6 6 7 7
3 4 4 4 3 4 4 4 3 3 3 3 3 2 2 2 1 1 1 2 3 3 3 3 3 2 1 1 1 3 5 6 5 5 5 4 2 4 6 5 5 7 7
3 4 4 4 3 3 3 3 3 3 3 3 3 3 2 2 1 1 1 2 2 2 3 3 3 3 2 0 2 3 4 6 5 5 5 6 6 6 5 6 7 7 5
3 4 4 4 4 3 3 3 3 3 3 3 3 3 2 2 1 2 1 2 2 2 3 4 4 4 3 3 3 2 2 4 4 5 4 6 8 6 5 5 4 4 4
4 4 4 4 4 4 3 3 4 3 3 3 3 2 2 1 1 1 1 2 2 3 4 5 4 5 5 6 7 6 6 6 5 6 5 4 4 3 3 4 4 4 3
4 4 5 4 4 4 4 4 4 4 3 3 3 2 2 1 1 1 1 1 1 1 2 3 5 4 3 5 6 6 6 7 7 5 4 4 5 5 5 5 5 5 4
Wind_Direction
180 171 175 178 176 173 171 176 182 181 182 184 196 198 201 201 199 202 194 208 221 222 229 247 235 255 267 287 290 284 277 279 293 285 283 253 229 245 266 266 272 265 273
181 174 177 182 181 175 176 177 184 186 188 188 199 207 205 200 188 191 178 207 219 226 223 237 238 244 260 257 275 278 288 294 298 297 291 277 231 207 251 251 261 278 278
202 193 190 188 182 180 182 180 183 184 187 188 191 183 182 194 189 184 182 189 201 220 248 239 260 260 262 259 266 268 276 286 287 297 301 300 307 313 229 252 258 265 267
202 199 197 193 190 186 179 179 181 180 181 188 197 192 202 206 184 183 177 184 196 209 224 237 248 257 260 265 259 273 272 273 283 275 281 296 313 294 291 255 255 264 261
202 198 197 194 190 184 177 175 177 180 180 187 189 196 204 190 168 161 155 195 184 191 193 208 224 240 247 256 277 282 281 277 284 290 285 280 275 270 283 292 291 278 267
192 193 186 179 180 176 170 169 174 176 177 183 189 199 196 188 180 181 191 208 180 176 182 206 220 237 243 234 246 257 254 275 286 287 287 286 288 286 287 289 291 290 285
188 187 179 177 175 173 173 172 171 173 177 181 184 192 197 197 199 200 201 218 215 196 185 234 243 241 240 247 254 250 261 263 270 274 280 285 284 289 286 285 292 292 288
191 191 187 182 175 171 172 171 170 172 173 173 174 182 193 207 196 201 228 231 246 240 203 230 253 253 247 250 254 256 257 261 268 274 281 279 280 282 280 284 292 291 288
190 183 173 175 173 170 172 172 169 166 164 167 170 177 189 201 196 196 219 236 246 248 244 251 258 258 251 250 252 259 269 270 268 272 273 276 283 278 278 279 281 287 292
173 167 167 167 164 166 167 164 160 157 158 163 174 177 179 188 198 212 211 228 244 255 253 258 257 258 256 250 257 263 269 270 271 276 282 282 283 283 276 272 275 273 281
176 164 161 159 155 159 162 162 160 158 162 169 171 175 183 185 195 208 217 227 241 248 249 250 254 257 258 259 265 276 273 271 273 274 275 280 289 288 283 276 273 270 270
173 161 159 160 156 156 161 162 163 166 169 172 174 183 191 196 208 215 228 235 245 249 246 250 255 259 262 262 267 273 277 277 275 278 282 283 283 284 287 287 279 277 273
148 157 159 160 158 158 159 159 166 170 175 178 182 187 198 204 215 226 234 242 243 248 250 250 258 266 271 268 268 272 276 278 280 284 284 282 283 283 286 284 282 278 272
149 157 157 162 159 159 160 161 161 169 177 184 189 193 207 218 228 238 243 246 244 249 257 264 271 272 274 275 274 275 277 279 282 284 283 282 282 280 282 279 280 284 284
167 168 167 167 166 162 160 163 167 172 175 187 196 206 215 223 232 243 251 250 246 252 257 267 274 271 269 285 297 285 278 282 283 282 281 282 281 286 281 285 291 289 282
188 175 169 167 172 169 168 172 172 174 180 191 202 215 225 229 237 244 249 246 251 263 269 272 274 273 289 345 302 285 280 281 281 283 284 280 261 261 253 256 263 269 270
186 177 172 172 175 175 177 174 176 176 182 194 204 216 228 234 242 250 250 251 259 269 280 280 277 281 301 288 280 280 275 273 279 283 284 286 289 272 277 260 240 243 240
187 181 172 167 170 174 175 173 179 180 183 193 198 204 219 230 240 246 251 257 264 277 287 287 293 290 290 248 275 287 270 274 278 280 283 285 288 292 297 291 285 278 262
179 176 174 166 168 172 175 178 182 183 186 188 191 198 215 226 239 248 256 265 272 284 286 279 285 284 284 251 270 284 285 282 287 290 288 285 283 296 293 284 286 287 288
159 164 163 158 167 169 172 181 185 190 192 185 186 193 213 233 245 251 263 278 280 279 286 290 286 284 289 272 263 281 289 298 298 293 287 275 269 288 281 283 289 292 297
159 160 158 161 164 165 174 182 182 187 187 177 176 183 205 225 235 245 266 285 288 294 290 289 282 282 294 277 242 263 287 299 301 305 307 335 49 277 279 275 278 286 294
163 163 158 159 158 168 181 183 179 180 180 177 176 184 207 226 198 206 265 280 283 278 281 285 291 296 286 288 263 239 255 289 294 301 315 342 359 304 286 277 279 281 280
173 170 166 162 163 176 186 181 168 171 174 177 181 189 196 207 206 220 238 260 265 296 315 321 324 332 343 356 210 234 253 264 276 301 317 310 298 296 278 255 260 262 262
179 178 172 169 168 171 173 167 160 159 162 170 175 184 190 201 195 245 265 290 315 325 331 335 337 342 342 350 357 317 274 246 255 283 283 255 256 259 276 280 260 259 277
177 174 174 171 166 163 164 164 160 162 167 171 178 191 196 193 218 247 301 307 345 353 322 335 337 339 340 9 2 337 330 330 335 319 294 296 301 299 301 303 306 299 291
169 171 172 170 165 165 165 165 166 175 178 180 189 200 203 200 245 259 243 144 258 158 230 267 299 333 338 326 325 323 315 304 298 293 298 313 318 321 320 319 318 313 315